This is the latest recevied weather packets stored in our database for station/object N0QV. If no packets are shown the sender has not sent any weather packets the latest 10 day(s).
| Time | Temp. | Humidity | Pressure | Rain* | Wind** | Luminosity | Snow |
|---|---|---|---|---|---|---|---|
| 1778076307 | 3.89° C | 63% | 1018 hPa | 0 mm | - | 98 W/m² | - |
| 1778076004 | 3.89° C | 63% | 1017.9 hPa | 0 mm | - | 102 W/m² | - |
| 1778075700 | 3.89° C | 63% | 1017.8 hPa | 0 mm | - | 100 W/m² | - |
| 1778075396 | 3.33° C | 65% | 1017.9 hPa | 0 mm | - | 94 W/m² | - |
| 1778075093 | 3.33° C | 68% | 1017.8 hPa | 0 mm | - | 92 W/m² | - |
| 1778074789 | 2.78° C | 65% | 1017.8 hPa | 0 mm | - | 86 W/m² | - |
| 1778074486 | 2.78° C | 65% | 1017.7 hPa | 0 mm | - | 74 W/m² | - |
| 1778074183 | 2.78° C | 65% | 1017.8 hPa | 0 mm | - | 72 W/m² | - |
| 1778073880 | 2.78° C | 64% | 1017.8 hPa | 0 mm | - | 72 W/m² | - |
| 1778073578 | 2.78° C | 65% | 1017.6 hPa | 0 mm | - | 72 W/m² | - |
| 1778073274 | 2.78° C | 65% | 1017.6 hPa | 0 mm | - | 65 W/m² | - |
| 1778072971 | 2.22° C | 66% | 1017.4 hPa | 0 mm | - | 48 W/m² | - |
| 1778072668 | 2.22° C | 66% | 1017.6 hPa | 0 mm | - | 41 W/m² | - |
| 1778072366 | 2.22° C | 67% | 1017.7 hPa | 0 mm | - | 38 W/m² | - |
| 1778072064 | 2.22° C | 67% | 1017.7 hPa | 0 mm | - | 35 W/m² | - |
| 1778071762 | 2.22° C | 67% | 1017.4 hPa | 0 mm | - | 32 W/m² | - |
| 1778071459 | 2.22° C | 67% | 1017.6 hPa | 0 mm | - | 33 W/m² | - |
| 1778071157 | 1.67° C | 66% | 1017.4 hPa | 0 mm | - | 35 W/m² | - |
| 1778070854 | 1.67° C | 68% | 1017.2 hPa | 0 mm | - | 30 W/m² | - |
| 1778070552 | 1.67° C | 68% | 1017.2 hPa | 0 mm | - | 30 W/m² | - |
| 1778070248 | 1.67° C | 70% | 1017.2 hPa | 0 mm | - | 30 W/m² | - |
| 1778069947 | 1.11° C | 70% | 1017.2 hPa | 0 mm | - | 30 W/m² | - |
| 1778069643 | 1.11° C | 70% | 1017.2 hPa | 0 mm | - | 29 W/m² | - |
| 1778069340 | 1.11° C | 72% | 1016.9 hPa | 0 mm | - | 28 W/m² | - |
| 1778069038 | 0.56° C | 72% | 1017 hPa | 0 mm | - | 28 W/m² | - |
* Rain latest hour (hover to see other rain measurements)
** Current wind speed in m/s (hover to see current wind gust speed)